Qaanaaq

KL  EN  DA
ASIAQ
Weather Now GREENLAND SURVEY
Updated [WGT/WGST] Temperature [°C] Wind [m/s] Air pressure [hPa] Relative humidity [%] Precipitation [mm]
Present Wind chill Speed Max
21.01 19:00n/an/a0,4 ⇘1,0101660n/a
21.01 18:00n/an/a1,5 ⇘2,6101659n/a
21.01 17:00-27,20,00,7 ⇘1,51015570,0
21.01 16:00-27,10,00,3 ⇘1,01014600,0
21.01 15:00-25,70,00,3 ⇘1,01013590,0
21.01 14:00-25,70,01,0 ⇘2,61012630,0
21.01 13:00-26,6-35,02,8 ⇘3,11012620,0
21.01 12:00-25,90,00,6 ⇗1,01011620,0
21.01 11:00-26,60,01,0 ⇑2,11010610,0
21.01 10:00-30,00,01,0 ⇑3,11009550,0
21.01 09:00-24,70,00,7 ⇑2,11009580,0
21.01 08:00-26,8-32,31,5 ⇑2,11009580,0
21.01 07:00-25,50,00,6 ⇘1,01008590,0
21.01 06:00-29,4-34,91,4 ⇘2,11007590,0
21.01 05:00-25,50,00,9 ⇑1,51007550,0
21.01 04:00-27,50,01,2 ⇑2,61006540,0
21.01 03:00-26,90,00,9 ⇖1,51006590,0
21.01 02:00-29,20,00,9 ⇙1,51006610,0
21.01 01:00-28,80,00,4 ⇐1,01006530,0
21.01 00:00-24,5-29,71,5 ⇖2,11005490,0
20.01 23:00-22,70,00,4 ⇖1,01005530,0
20.01 22:00-26,90,00,4 ⇖1,01005580,0
20.01 21:00-24,50,00,7 ⇐1,01004530,0
20.01 20:00-25,70,00,5 ⇐1,01004550,0
20.01 19:00-26,70,00,6 ⇐1,51004560,0
Position: (77.48527778,-69.3744444444)

[Back]